EN

Hourly Weather Labusz

Today, 29 July, Thursday

Time Temperature Precipitation Wind Pressure Humidity
00:00 +18°C° 0 mm 4 mps 756 mmHg 82%
01:00 +18°C° 0 mm 4 mps 756 mmHg 84%
02:00 +17°C° 0 mm 4 mps 756 mmHg 85%
03:00 +16°C° 0 mm 5 mps 756 mmHg 87%
04:00 +16°C° 0 mm 5 mps 756 mmHg 89%
05:00 +17°C° 0 mm 5 mps 756 mmHg 83%
06:00 +19°C° 0 mm 6 mps 756 mmHg 77%
07:00 +20°C° 0 mm 6 mps 756 mmHg 71%
08:00 +21°C° 0.1 mm 7 mps 756 mmHg 65%
09:00 +22°C° 0.1 mm 7 mps 756 mmHg 58%
10:00 +24°C° 0.1 mm 8 mps 756 mmHg 51%
11:00 +23°C° 0.1 mm 8 mps 756 mmHg 54%
12:00 +23°C° 0.1 mm 8 mps 756 mmHg 56%
13:00 +22°C° 0.1 mm 8 mps 756 mmHg 58%
14:00 +22°C° 0 mm 8 mps 756 mmHg 55%
15:00 +22°C° 0 mm 7 mps 756 mmHg 51%
16:00 +22°C° 0 mm 7 mps 756 mmHg 48%
17:00 +22°C° 0 mm 7 mps 756 mmHg 50%
18:00 +21°C° 0 mm 7 mps 756 mmHg 52%
19:00 +21°C° 0 mm 7 mps 756 mmHg 54%
20:00 +20°C° 0 mm 7 mps 756 mmHg 57%
21:00 +17°C° 0 mm 6 mps 756 mmHg 61%
22:00 +16°C° 0 mm 6 mps 756 mmHg 65%
23:00 +16°C° 0 mm 6 mps 756 mmHg 67%

Tomorrow, 30 July, Friday

Time Temperature Precipitation Wind Pressure Humidity
00:00 +15°C° 0 mm 6 mps 756 mmHg 68%
01:00 +15°C° 0 mm 7 mps 756 mmHg 70%
02:00 +15°C° 0 mm 7 mps 755 mmHg 72%
03:00 +14°C° 0 mm 7 mps 755 mmHg 74%
04:00 +14°C° 0 mm 7 mps 755 mmHg 77%
05:00 +15°C° 0 mm 8 mps 755 mmHg 73%
06:00 +16°C° 0 mm 8 mps 755 mmHg 69%
07:00 +17°C° 0 mm 8 mps 755 mmHg 65%
08:00 +18°C° 0 mm 9 mps 755 mmHg 58%
09:00 +19°C° 0 mm 9 mps 755 mmHg 52%
10:00 +22°C° 0 mm 9 mps 755 mmHg 45%
11:00 +22°C° 0 mm 9 mps 755 mmHg 44%
12:00 +23°C° 0 mm 9 mps 755 mmHg 42%
13:00 +24°C° 0 mm 9 mps 754 mmHg 41%
14:00 +24°C° 0 mm 8 mps 754 mmHg 42%
15:00 +24°C° 0 mm 8 mps 754 mmHg 43%
16:00 +24°C° 0 mm 7 mps 754 mmHg 44%
17:00 +23°C° 0 mm 6 mps 754 mmHg 51%
18:00 +21°C° 0 mm 5 mps 754 mmHg 58%
19:00 +20°C° 0 mm 4 mps 754 mmHg 64%
20:00 +19°C° 0 mm 3 mps 754 mmHg 69%
21:00 +18°C° 0 mm 3 mps 754 mmHg 73%
22:00 +17°C° 0 mm 2 mps 754 mmHg 77%
23:00 +17°C° 0 mm 3 mps 754 mmHg 76%

Day after tomorrow, 31 July, Saturday

Time Temperature Precipitation Wind Pressure Humidity
00:00 +16°C° 0 mm 3 mps 754 mmHg 75%
01:00 +16°C° 0 mm 3 mps 754 mmHg 74%
02:00 +17°C° 0 mm 3 mps 753 mmHg 71%
03:00 +17°C° 0 mm 4 mps 753 mmHg 69%
04:00 +17°C° 0 mm 4 mps 753 mmHg 67%
05:00 +17°C° 0.1 mm 5 mps 752 mmHg 67%
06:00 +19°C° 0.1 mm 6 mps 752 mmHg 68%
07:00 +20°C° 0.1 mm 7 mps 752 mmHg 68%
08:00 +21°C° 0 mm 7 mps 752 mmHg 61%
09:00 +22°C° 0 mm 7 mps 752 mmHg 53%
10:00 +24°C° 0 mm 8 mps 752 mmHg 46%
11:00 +23°C° 0 mm 8 mps 752 mmHg 48%
12:00 +23°C° 0 mm 8 mps 752 mmHg 50%
13:00 +22°C° 0 mm 9 mps 752 mmHg 52%
14:00 +22°C° 0 mm 9 mps 752 mmHg 51%
15:00 +23°C° 0 mm 9 mps 752 mmHg 49%
16:00 +23°C° 0 mm 10 mps 752 mmHg 48%
17:00 +22°C° 0.2 mm 9 mps 752 mmHg 52%
18:00 +22°C° 0.2 mm 9 mps 752 mmHg 56%
19:00 +21°C° 0.2 mm 8 mps 752 mmHg 59%
20:00 +20°C° 0.2 mm 8 mps 752 mmHg 63%
21:00 +20°C° 0.2 mm 8 mps 753 mmHg 68%
22:00 +18°C° 0.2 mm 8 mps 753 mmHg 72%
23:00 +17°C° 0.3 mm 8 mps 753 mmHg 76%

1 August, Sunday

Time Temperature Precipitation Wind Pressure Humidity
00:00 +17°C° 0.3 mm 8 mps 753 mmHg 81%
01:00 +16°C° 0.3 mm 8 mps 754 mmHg 85%
02:00 +16°C° 0.1 mm 7 mps 754 mmHg 87%
03:00 +15°C° 0.1 mm 7 mps 754 mmHg 88%
04:00 +15°C° 0.1 mm 7 mps 754 mmHg 89%
05:00 +15°C° 0 mm 7 mps 754 mmHg 85%
06:00 +16°C° 0 mm 6 mps 755 mmHg 81%
07:00 +16°C° 0 mm 6 mps 755 mmHg 77%
08:00 +17°C° 0 mm 6 mps 755 mmHg 68%
09:00 +20°C° 0 mm 6 mps 755 mmHg 60%
10:00 +21°C° 0 mm 6 mps 755 mmHg 51%
11:00 +22°C° 0 mm 6 mps 755 mmHg 50%
12:00 +22°C° 0 mm 6 mps 755 mmHg 48%
13:00 +23°C° 0 mm 6 mps 755 mmHg 46%
14:00 +23°C° 0 mm 5 mps 755 mmHg 48%
15:00 +22°C° 0 mm 5 mps 755 mmHg 49%
16:00 +22°C° 0 mm 4 mps 755 mmHg 51%
17:00 +21°C° 0 mm 3 mps 755 mmHg 56%
18:00 +20°C° 0 mm 3 mps 755 mmHg 61%
19:00 +19°C° 0 mm 2 mps 755 mmHg 66%
20:00 +19°C° 0 mm 2 mps 755 mmHg 67%
21:00 +18°C° 0 mm 2 mps 755 mmHg 69%
22:00 +18°C° 0 mm 2 mps 755 mmHg 71%
23:00 +17°C° 0 mm 2 mps 755 mmHg 72%

2 August, Monday

Time Temperature Precipitation Wind Pressure Humidity
00:00 +17°C° 0 mm 3 mps 754 mmHg 74%
01:00 +16°C° 0 mm 3 mps 754 mmHg 75%
02:00 +16°C° 0.5 mm 3 mps 754 mmHg 80%
03:00 +14°C° 0.5 mm 4 mps 754 mmHg 85%
04:00 +14°C° 0.5 mm 4 mps 754 mmHg 90%
05:00 +15°C° 0.7 mm 5 mps 754 mmHg 87%
06:00 +16°C° 0.7 mm 5 mps 754 mmHg 84%
07:00 +17°C° 0.7 mm 6 mps 754 mmHg 82%
08:00 +18°C° 0.2 mm 7 mps 754 mmHg 73%
09:00 +18°C° 0.2 mm 8 mps 754 mmHg 65%
10:00 +20°C° 0.2 mm 8 mps 755 mmHg 56%
11:00 +19°C° 0.1 mm 9 mps 755 mmHg 56%
12:00 +21°C° 0.1 mm 9 mps 755 mmHg 55%
13:00 +21°C° 0.1 mm 9 mps 755 mmHg 55%
14:00 +21°C° 0.2 mm 9 mps 755 mmHg 57%
15:00 +21°C° 0.2 mm 9 mps 755 mmHg 59%
16:00 +19°C° 0.2 mm 9 mps 755 mmHg 61%
17:00 +19°C° 0.1 mm 9 mps 755 mmHg 63%
18:00 +18°C° 0.1 mm 9 mps 755 mmHg 65%
19:00 +18°C° 0.1 mm 9 mps 755 mmHg 67%
20:00 +17°C° 0.1 mm 8 mps 756 mmHg 69%
21:00 +16°C° 0.1 mm 8 mps 756 mmHg 72%
22:00 +16°C° 0.1 mm 7 mps 756 mmHg 74%
23:00 +16°C° 0.4 mm 7 mps 756 mmHg 77%

3 August, Tuesday

Time Temperature Precipitation Wind Pressure Humidity
00:00 +15°C° 0.4 mm 7 mps 756 mmHg 80%
01:00 +15°C° 0.4 mm 7 mps 757 mmHg 82%
02:00 +15°C° 0.5 mm 7 mps 757 mmHg 84%
03:00 +14°C° 0.5 mm 6 mps 757 mmHg 86%
04:00 +14°C° 0.5 mm 6 mps 757 mmHg 88%
05:00 +15°C° 0.4 mm 6 mps 757 mmHg 84%
06:00 +16°C° 0.4 mm 6 mps 758 mmHg 80%
07:00 +17°C° 0.4 mm 5 mps 758 mmHg 76%
08:00 +17°C° 0.2 mm 5 mps 758 mmHg 70%
09:00 +19°C° 0.2 mm 5 mps 758 mmHg 64%
10:00 +20°C° 0.2 mm 5 mps 758 mmHg 58%
11:00 +21°C° 0 mm 5 mps 758 mmHg 55%
12:00 +21°C° 0 mm 5 mps 758 mmHg 52%
13:00 +22°C° 0 mm 4 mps 758 mmHg 48%
14:00 +21°C° 0 mm 4 mps 758 mmHg 51%
15:00 +21°C° 0 mm 3 mps 758 mmHg 53%
16:00 +20°C° 0 mm 2 mps 757 mmHg 55%
17:00 +19°C° 0.6 mm 2 mps 757 mmHg 65%
18:00 +17°C° 0.6 mm 2 mps 757 mmHg 76%
19:00 +16°C° 0.6 mm 1 mps 757 mmHg 86%
20:00 +16°C° 3.5 mm 2 mps 757 mmHg 89%
21:00 +14°C° 3.5 mm 3 mps 756 mmHg 92%
22:00 +14°C° 3.5 mm 4 mps 756 mmHg 95%
23:00 +14°C° 3.8 mm 5 mps 756 mmHg 95%
Show more